Tracking 35331 objects as of 14-Sep-2026
HD Live streaming from Space Station
objects crossing your sky now

COSMOS 2133

Track COSMOS 2133 now!
COSMOS 2133 is classified as:


NORAD ID: 21111
Int'l Code: 1991-010A
Launch date: February 14, 1991
Source: Commonwealth of Independent States (former USSR) (CIS)
Launch site: TYURATAM MISSILE AND SPACE COMPLEX (TTMTR)
Your satellite tracking list
Your tracking list is empty




NASA's NSSDC Master Catalog

Two Line Element Set (TLE):
1 21111U 91010A   26256.73505454 -.00000128  00000-0  00000-0 0  9993
2 21111  13.1864 342.1364 0006402 206.8484 144.9511  1.00260290130322
Source of the keplerian elements: AFSPC